Xingshidai-21

operational
NORAD ID: 61232 Int'l Des: NNA 2024-173 Owner: GUOX Country: CN
LEOCIRCULARRETROGRADE

About Xingshidai-21

Description loading...

Live Position

Loading 3D Globe...

Upcoming Passes

Altitude History

Altitude vs Time

uPlot chart will show altitude changes over time

Two-Line Element Set

1 61232U 24173F 26063.22127561 .00046913 00000-0 51376-3 0 9992
2 61232 97.3535 154.9145 0006510 165.8471 194.2971 15.63123858 81140
Epoch: Mar 4, 2026 • Age: 11 hours

Current Status

Altitude 382.6 km
Velocity 7.68 km/s
Sub-Earth Point -19.59°S, 8.76°E
Launch Date Sep 24, 2024
Age 1.4 years
Type other

Technical Details

Classification Payload
Mass 25.00 kg
Dry Mass 25.00 kg
Total Mass 25.00 kg
Length 0.30 m
Diameter 0.30 m
Span 0.30 m
Shape Box + 3 pan
Manufacturer GUOX/HISTAR
Bus Type XSD
Phase Status In Orbit
Owner/State GUOX/CN

Large Constellations

Loading constellations...